Home   Weather   Swindon   Past weeks

Flag for United Kingdom Past Weather in Swindon, England, United Kingdom — Yesterday and Last 2 Weeks

Now
36 °F

Scattered clouds.


Feels Like: 29 °F
Forecast: 25 / 37 °F
Wind: 8 mph from East

Location: Brize Norton

Current Time: Jan 21, 2017 at 1:26:16 pm

Latest Report: Jan 21, 2017 at 12:50 pm


Visibility: 3 mi

Pressure: 30.30 "Hg

Humidity: 87%

Dew Point: 32 °F

Location of SwindonLocation

Past Weather in Swindon — Graph

°F

Swindon Temperature Yesterday

Maximum temperature yesterday: 41 °F (at 12:50 pm)
Minimum temperature yesterday: 30 °F (at 6:50 am)
Average temperature yesterday: 35 °F

High & Low Weather Summary for the Past Weeks

 TemperatureHumidityPressure
High52 °F (Jan 7, 11:50 am)100% (Jan 6, 5:40 pm)30.66 "Hg (Jan 6, 5:40 pm)
Low30 °F (Jan 14, 2:50 am)46% (Jan 11, 1:50 pm)29.42 "Hg (Jan 12, 3:50 pm)
Average41 °F88%30.24 "Hg
* Reported Jan 6 11:50 am — Jan 21 11:50 am, Swindon, Weather by CustomWeather, © 2017

Note: Actual official high and low records may vary slightly from our data, if they occured in-between our weather recording intervals... More about our weather records

Advertising

Swindon Weather History for the Previous 24 Hours

Scroll right to see more
 ConditionsComfort  
Time TempWeatherWind HumidityBarometerVisibility
11:50 am
Sat, Jan 21
36 °FScattered clouds.7 mph87%30.33 "HgN/A
10:50 am34 °FScattered clouds.8 mph93%30.36 "HgN/A
9:50 am32 °FSunny.3 mph93%30.36 "Hg10 mi
8:50 am30 °FSnow. Haze.7 mph93%30.36 "HgN/A
7:50 am30 °FHaze.7 mph93%30.36 "Hg4 mi
6:50 am30 °FClear.8 mph93%30.36 "Hg5 mi
5:50 am30 °FClear.6 mph93%30.36 "Hg5 mi
4:50 am30 °FClear.6 mph93%30.36 "Hg5 mi
3:50 am30 °FClear.7 mph93%30.39 "Hg5 mi
2:50 am30 °FClear.8 mph93%30.39 "Hg10 mi
1:50 am32 °FClear.7 mph93%30.42 "Hg10 mi
12:50 am32 °FClear.8 mph93%30.42 "Hg10 mi
11:50 pm
Fri, Jan 20
34 °FClear.9 mph87%30.42 "Hg10 mi
10:50 pm34 °FClear.7 mph87%30.45 "Hg10 mi
9:50 pm34 °FClear.8 mph87%30.45 "Hg10 mi
8:50 pm36 °FClear.8 mph81%30.45 "Hg10 mi
7:50 pm36 °FClear.9 mph81%30.45 "Hg10 mi
6:50 pm36 °FClear.7 mph81%30.45 "Hg10 mi
5:50 pm36 °FClear.8 mph75%30.45 "Hg10 mi
4:50 pm37 °FClear.10 mph70%30.45 "Hg10 mi
3:50 pm39 °FSunny.9 mph65%30.45 "Hg10 mi
2:50 pm41 °FSunny.10 mph61%30.45 "Hg10 mi
1:50 pm41 °FSunny.12 mph61%30.48 "Hg10 mi
Weather by CustomWeather, © 2017

See weather overviewHow to use our weather pages